Location: Bretagne
(43.8474°N, 0.4650°W)
Time: 07:18:38
(UTC+00:00)

ARIANE 6 FM1 Upper Stage - Visible Passes

Search period start: 08 March 2026 00:00
Search period end: 18 March 2026 00:00
Orbit: 523 x 607 km, 62.0° (Epoch: 8 March)

Date Brightness Start Highest point End Pass type
(mag) Time Alt. Az. Time Alt. Az. Time Alt. Az.
8 Mar 5.5 04:21:53 10° SE 04:23:57 14° ESE 04:26:00 10° E visible
9 Mar 5.0 04:20:35 10° SSE 04:23:37 20° ESE 04:26:36 10° ENE visible
10 Mar 4.4 04:21:06 18° SSE 04:23:18 29° ESE 04:26:49 10° ENE visible
11 Mar 3.6 04:21:36 30° S 04:23:00 42° ESE 04:26:51 10° NE visible
12 Mar 2.9 04:21:55 50° S 04:22:44 63° SE 04:26:45 10° NE visible
13 Mar 2.4 04:22:07 73° SW 04:22:30 87° NW 04:26:33 10° NE visible
14 Mar 2.6 04:22:11 60° NW 04:22:16 60° NW 04:26:17 10° NNE visible
15 Mar 5.8 02:46:10 12° ENE 02:46:10 12° ENE 02:46:31 10° ENE visible
15 Mar 3.1 04:22:10 42° NW 04:22:10 42° NW 04:25:57 10° NNE visible
16 Mar 5.7 02:46:04 13° ENE 02:46:04 13° ENE 02:46:36 10° ENE visible
16 Mar 3.7 04:22:03 31° NW 04:22:03 31° NW 04:25:33 10° NNE visible
17 Mar 5.6 02:45:53 14° NE 02:45:53 14° NE 02:46:31 10° NE visible
17 Mar 4.1 04:21:53 23° NW 04:21:53 23° NW 04:25:05 10° NNE visible
